[[{"header":{"parameterUnit":"m.s-1","parameterCategory":1,"la1":30.2991,"la2":30.254,"lo1":-89.0895,"lo2":-89.0444,"dy":0.0017,"dx":0.0017,"nx":28,"ny":28,"refTime":"2023-07-30T21:00:00:Z","depth":0,"parameterNumber":2,"parameterNumberName":"U-component_of_WINDS"},"data":[0,0,0,0,0,0,0,0,0,0,0,0,0,0,0,0,0,0,0,0,0,0,0,0,0,0,0,0,0,0,0,0,0,0,0,0,0,0,0,0,0,0,0,0,0,0,0,0,0,0,0,0,0,0,0,0,0,0,5.3147,5.3146,0,5.2977,5.2975,5.2973,5.2824,5.2822,5.282,5.2819,5.2636,5.2633,5.2629,0,0,0,0,0,0,0,0,0,0,0,0,0,5.3339,5.3337,5.3148,5.3146,5.3143,5.2977,5.2975,5.2972,5.2824,5.2822,5.282,5.2818,5.2637,5.2633,5.2629,0,0,0,0,0,0,0,0,0,0,0,0,0,5.3221,5.3336,5.3148,5.305,5.3039,5.2978,5.2975,5.2972,5.2824,5.2822,5.2819,5.2817,5.2638,5.2633,5.2629,5.2648,0,0,5.2613,5.2611,0,0,0,0,0,0,0,0,5.3228,5.3214,5.3066,5.3056,5.3044,5.2919,5.2975,5.2863,5.2825,5.2906,5.2819,5.2816,5.2732,5.2719,5.2692,5.264,5.2632,5.2613,5.261,5.2608,5.2606,0,0,0,0,0,0,0,5.3236,5.3221,5.308,5.3064,5.3051,5.3012,5.2992,5.2953,5.2835,5.2898,5.2887,5.287,5.2725,5.2697,5.2687,5.2629,5.2613,5.2609,5.2606,5.2604,5.2585,5.2587,0,0,0,0,0,0,5.3261,5.3229,5.3085,5.3075,5.3132,5.3011,5.2989,5.2962,5.2835,5.2813,5.2872,5.2863,5.2707,5.2693,5.268,5.2693,5.2608,5.2603,5.26,5.2582,5.2585,5.2588,0,0,0,0,0,0,5.3265,5.3249,5.3092,5.3149,5.3126,5.301,5.2981,5.296,5.2932,5.2815,5.2792,5.2866,5.2704,5.2687,5.2658,5.2685,5.2601,5.2596,5.258,5.2583,5.2587,5.2722,0,0,0,0,0,0,5.3272,5.3252,5.3259,5.315,5.3123,5.3075,5.2983,5.2958,5.2924,5.2911,5.2803,5.2782,5.2701,5.2666,5.2653,5.2677,5.2593,5.2576,5.2581,5.2586,5.2715,5.273,5.2743,0,0,0,0,0,5.3279,5.3302,5.326,5.3244,5.313,5.3077,5.3061,5.297,5.2927,5.2933,5.2858,5.2786,5.2686,5.2664,5.2648,5.2671,5.2574,5.258,5.2585,5.2708,5.2727,5.2743,0,0,0,0,0,0,5.3414,5.3286,5.3238,5.3227,5.3165,5.3052,5.3055,5.2993,5.2938,5.2928,5.2815,5.2791,5.2775,5.272,5.2699,5.2684,5.262,5.2623,5.2719,5.2736,5.275,5.2762,5.2588,0,0,0,0,0,5.3444,5.3413,5.3302,5.3303,5.3275,5.3172,5.3145,5.3081,5.3009,5.2981,5.2904,5.2836,5.2789,5.276,5.2711,5.2708,5.2681,5.2716,5.2731,5.2743,5.2745,5.2739,5.2752,5.2606,5.2606,5.2606,0,0,5.3502,5.3428,5.3415,5.3329,5.3272,5.3241,5.315,5.312,5.3095,5.2976,5.2944,5.2886,5.2803,5.2788,5.2777,5.2741,5.278,5.275,5.2761,5.2755,5.2746,5.276,5.2772,5.261,5.261,5.2609,0,0,5.3591,5.3535,5.3529,5.3476,5.3393,5.3325,5.3325,5.3223,5.318,5.3148,5.3058,5.3026,5.2948,5.2893,5.2854,5.2929,5.2859,5.2916,5.2989,5.2984,5.2996,5.3005,5.303,5.304,5.292,5.292,5.292,0,5.3673,5.3625,5.3533,5.351,5.3474,5.337,5.3362,5.3314,5.3219,5.3196,5.3159,5.306,5.2997,5.2967,5.2986,5.2959,5.2953,5.2925,5.3002,5.3011,5.3018,5.304,5.305,5.2927,5.2926,5.2926,5.2925,0,5.3729,5.3697,5.3702,5.3617,5.3582,5.3567,5.3471,5.3447,5.3388,5.3324,5.3292,5.3213,5.3146,5.3135,5.3075,5.3097,5.3078,5.3024,5.2956,5.3041,5.3059,5.3067,5.2938,5.2935,5.2933,5.2931,0,0,5.3892,5.3761,5.3764,5.3724,5.3628,5.36,5.3582,5.3519,5.35,5.3439,5.3418,5.3358,5.3308,5.3265,5.3198,5.3195,5.3257,5.314,5.3137,5.3163,5.3275,5.3313,5.3325,5.3214,5.3215,5.3216,5.3281,0,5.3964,5.3925,5.3844,5.3829,5.3798,5.3701,5.3684,5.3623,5.3564,5.3527,5.3461,5.3419,5.3358,5.3331,5.3324,5.3252,5.3278,5.3246,5.319,5.3189,5.3209,5.3335,5.3374,5.3439,5.3288,5.3289,5.329,0,5.404,5.3989,5.3973,5.3881,5.3865,5.3851,5.3788,5.3756,5.3685,5.3642,5.3597,5.3525,5.3498,5.3442,5.3402,5.3382,5.3355,5.3317,5.3317,5.3304,5.3241,5.3322,5.3458,5.3467,5.3301,5.33,5.3299,0,5.4158,5.4085,5.4066,5.4036,5.3928,5.3921,5.3876,5.3803,5.3771,5.3716,5.3694,5.3637,5.3604,5.3561,5.3475,5.3442,5.3445,5.338,5.3406,5.3408,5.3406,5.3406,5.3536,5.3396,5.3396,5.3396,5.3396,0,5.4243,5.4236,5.4118,5.4106,5.4095,5.4003,5.3995,5.394,5.3877,5.3851,5.3764,5.3741,5.3632,5.3596,5.353,5.3506,5.3493,5.3455,5.3437,5.3461,5.3465,5.3438,5.3429,5.3398,5.3398,5.3397,5.3397,0,5.437,5.4291,5.4264,5.4167,5.4142,5.4139,5.4054,5.4038,5.3977,5.3946,5.3933,5.3835,5.3789,5.3701,5.3629,5.3585,5.3575,5.3545,5.3599,5.3587,5.3616,5.3614,5.3729,5.3739,5.3598,5.3599,5.3601,0,5.4427,5.442,5.4324,5.4303,5.4262,5.4227,5.4196,5.4106,5.4077,5.3998,5.3991,5.394,5.3892,5.3824,5.3744,5.3689,5.3655,5.37,5.3646,5.3671,5.3652,5.3652,5.365,5.371,5.3712,5.3714,5.3715,0,5.4537,5.4499,5.4459,5.4406,5.4373,5.4326,5.4274,5.4261,5.4159,5.413,5.4084,5.4048,5.3978,5.3927,5.3862,5.3812,5.3746,5.3735,5.3737,5.3758,5.3789,5.377,5.3628,5.373,5.3729,5.3728,5.3727,5.3726,5.4627,5.4617,5.4549,5.4507,5.4461,5.4416,5.4396,5.4334,5.4295,5.4232,5.4182,5.414,5.4071,5.3977,5.3933,5.3897,5.3865,5.3869,5.387,5.3871,5.388,5.38,5.3885,5.3885,5.3884,5.3884,5.3883,0,5.4729,5.4683,5.4646,5.4579,5.4546,5.4493,5.4434,5.441,5.4375,5.4317,5.4275,5.4222,5.4174,5.4094,5.4038,5.4025,5.3993,5.4013,5.401,5.4,5.3913,5.3915,5.4039,5.4039,5.4039,5.4039,5.4039,5.4039,5.4778,5.4758,5.4714,5.4669,5.4621,5.4582,5.4553,5.451,5.4464,5.4411,5.4371,5.4321,5.4254,5.4193,5.4146,5.4123,5.4105,5.4134,5.4102,5.4021,5.4006,5.3992,5.3993,5.4132,5.4132,5.4191,5.4192,5.4192]},{"header":{"parameterUnit":"m.s-1","parameterCategory":1,"la1":30.2991,"la2":30.254,"lo1":-89.0895,"lo2":-89.0444,"dy":0.0017,"dx":0.0017,"nx":28,"ny":28,"refTime":"2023-07-30T21:00:00:Z","depth":0,"parameterNumber":3,"parameterNumberName":"V-component_of_WINDS"},"data":[0,0,0,0,0,0,0,0,0,0,0,0,0,0,0,0,0,0,0,0,0,0,0,0,0,0,0,0,0,0,0,0,0,0,0,0,0,0,0,0,0,0,0,0,0,0,0,0,0,0,0,0,0,0,0,0,0,0,2.1976,2.1982,0,2.2511,2.2517,2.2523,2.2764,2.2763,2.2763,2.2762,2.3299,2.3313,2.3328,0,0,0,0,0,0,0,0,0,0,0,0,0,2.1156,2.1169,2.1976,2.1982,2.1989,2.251,2.2518,2.2525,2.2764,2.2763,2.2763,2.2762,2.3294,2.3312,2.3329,0,0,0,0,0,0,0,0,0,0,0,0,0,2.1583,2.1174,2.1975,2.2172,2.2195,2.2509,2.2518,2.2527,2.2764,2.2763,2.2762,2.2762,2.3288,2.331,2.3332,2.3487,0,0,2.34,2.341,0,0,0,0,0,0,0,0,2.1558,2.1613,2.2136,2.2159,2.2185,2.257,2.2426,2.2848,2.2764,2.2547,2.2762,2.2761,2.3056,2.3098,2.32,2.3512,2.3535,2.3402,2.3415,2.3425,2.3431,0,0,0,0,0,0,0,2.1528,2.1591,2.2187,2.2143,2.2173,2.2232,2.2291,2.2507,2.28,2.2566,2.2585,2.2646,2.307,2.3178,2.3214,2.3543,2.3401,2.3421,2.3435,2.3444,2.4017,2.4019,0,0,0,0,0,0,2.1468,2.1565,2.217,2.2203,2.1863,2.2247,2.2314,2.2447,2.2799,2.2851,2.2646,2.2655,2.314,2.3188,2.3234,2.3445,2.3425,2.3446,2.3459,2.4015,2.4018,2.402,0,0,0,0,0,0,2.1449,2.1519,2.2149,2.189,2.1974,2.2262,2.241,2.2458,2.2567,2.2859,2.2911,2.2703,2.3141,2.3203,2.3425,2.3467,2.3456,2.3476,2.4013,2.4016,2.4019,2.3863,0,0,0,0,0,0,2.1424,2.1511,2.1574,2.1889,2.1987,2.2332,2.2412,2.2469,2.2606,2.2623,2.2926,2.2976,2.3145,2.339,2.3447,2.3497,2.3493,2.4011,2.4014,2.4018,2.3866,2.386,2.3856,0,0,0,0,0,2.1394,2.1505,2.1576,2.1648,2.2072,2.2334,2.239,2.2586,2.2608,2.2674,2.2863,2.2966,2.3452,2.3411,2.3477,2.3534,2.4009,2.4013,2.4018,2.3868,2.3862,2.3856,0,0,0,0,0,0,2.1181,2.1549,2.1632,2.1848,2.2059,2.2374,2.2463,2.2571,2.2777,2.2783,2.3015,2.3081,2.3285,2.3431,2.3379,2.3706,2.374,2.3757,2.3604,2.36,2.3595,2.3556,2.3512,0,0,0,0,0,2.116,2.1345,2.1655,2.1816,2.1918,2.2171,2.2292,2.2427,2.2652,2.2741,2.2946,2.3158,2.336,2.3487,2.3688,2.3888,2.3959,2.396,2.3954,2.3949,2.3962,2.4084,2.409,2.4034,2.4034,2.4034,0,0,2.1116,2.1341,2.1442,2.1779,2.1958,2.2143,2.2244,2.2434,2.2575,2.2769,2.2995,2.3151,2.3404,2.3617,2.3721,2.3746,2.3993,2.3954,2.3947,2.3965,2.4089,2.4094,2.4099,2.4037,2.4036,2.4036,0,0,2.1134,2.132,2.1479,2.1658,2.193,2.2099,2.2136,2.2438,2.2552,2.2783,2.2935,2.3102,2.3443,2.362,2.3753,2.3844,2.3949,2.3902,2.3876,2.3993,2.3997,2.4002,2.404,2.405,2.3914,2.3913,2.3913,0,2.1045,2.1334,2.1545,2.1731,2.1876,2.2066,2.2229,2.239,2.2711,2.2807,2.283,2.3268,2.345,2.3711,2.3734,2.3834,2.3885,2.387,2.398,2.3987,2.3995,2.4033,2.4046,2.3906,2.3907,2.3908,2.3909,0,2.1214,2.1412,2.1507,2.182,2.1975,2.2147,2.2384,2.2516,2.2637,2.2803,2.3038,2.3264,2.3518,2.3589,2.3705,2.3868,2.3876,2.3935,2.3975,2.399,2.403,2.4046,2.3896,2.3899,2.3901,2.3903,0,0,2.111,2.1544,2.1575,2.1723,2.2039,2.2195,2.2376,2.2631,2.2741,2.2956,2.3116,2.3403,2.3464,2.3616,2.3754,2.3856,2.3921,2.3906,2.3916,2.3905,2.4119,2.4074,2.4088,2.3991,2.3994,2.3997,2.41,0,2.1175,2.1515,2.1713,2.197,2.2159,2.2344,2.2503,2.2714,2.2874,2.3056,2.3232,2.3435,2.3497,2.3591,2.3699,2.3889,2.3967,2.3884,2.4143,2.4149,2.4078,2.4108,2.4061,2.4146,2.4116,2.4119,2.4121,0,2.1295,2.1516,2.1793,2.2096,2.2182,2.2322,2.2574,2.2745,2.2988,2.3098,2.3271,2.3412,2.3611,2.3632,2.3911,2.385,2.3967,2.4077,2.4085,2.4119,2.4138,2.4147,2.4178,2.4192,2.4146,2.4144,2.4142,0,2.1199,2.1563,2.1779,2.1899,2.2255,2.235,2.2502,2.2746,2.2887,2.3106,2.3201,2.3436,2.3566,2.3745,2.3945,2.3941,2.4206,2.4242,2.4304,2.4299,2.4354,2.4348,2.4407,2.4421,2.4421,2.442,2.442,0,2.1253,2.1416,2.1742,2.1874,2.2065,2.2291,2.2472,2.2638,2.2854,2.3023,2.3194,2.3347,2.3601,2.3786,2.3943,2.4153,2.4208,2.4303,2.4344,2.4291,2.428,2.4373,2.4374,2.4424,2.4423,2.4423,2.4422,0,2.1177,2.1401,2.165,2.197,2.2054,2.2181,2.2454,2.259,2.2762,2.2973,2.3035,2.3303,2.353,2.3748,2.4049,2.4155,2.4366,2.4417,2.4286,2.4309,2.4361,2.4355,2.4486,2.4516,2.4503,2.4503,2.4503,0,2.1198,2.1331,2.1667,2.1796,2.1946,2.2148,2.2297,2.2524,2.2671,2.2962,2.3063,2.3304,2.351,2.3863,2.4083,2.4316,2.4376,2.4406,2.4412,2.4357,2.4383,2.4375,2.4391,2.4401,2.44,2.44,2.4399,0,2.1214,2.1321,2.153,2.1781,2.1955,2.2161,2.2372,2.2466,2.2734,2.289,2.3128,2.3288,2.3601,2.3838,2.4098,2.4252,2.4371,2.4396,2.4424,2.4372,2.4293,2.4342,2.4277,2.4392,2.4393,2.4393,2.4394,2.4394,2.1193,2.1322,2.1582,2.1811,2.1996,2.2191,2.2338,2.2531,2.2735,2.3011,2.3132,2.3373,2.3617,2.398,2.4133,2.4324,2.4351,2.4389,2.44,2.4407,2.4399,2.426,2.437,2.4371,2.4371,2.4372,2.4372,0,2.1222,2.1401,2.1609,2.1905,2.2086,2.2187,2.2428,2.2572,2.2784,2.3004,2.3206,2.3481,2.3714,2.3954,2.4201,2.4307,2.4368,2.4364,2.4361,2.4396,2.4357,2.4311,2.4312,2.4312,2.4312,2.4312,2.4312,2.4312,2.1259,2.1486,2.1623,2.1944,2.212,2.2363,2.2493,2.2675,2.2853,2.3155,2.3353,2.351,2.3739,2.4005,2.4223,2.4288,2.4372,2.4354,2.4434,2.4394,2.4397,2.44,2.4359,2.437,2.437,2.4458,2.4459,2.4459]}]]